User: anonymous   Login
Location: Fontevrault
(47.1823°N, 0.0493°E)
Time: 19:41:27
(UTC+00:00)
Language:

NOAA 16 DEB - Orbit

View from above orbital plane
View from above orbital plane
View from above satellite
View from above satellite

Ground track
Ground track

The orbit data is extracted from the following two-line orbital elements,

1 41516U 00055MQ  22014.01035809  .00000961  00000-0  49469-3 0  9993
2 41516  98.7565  93.5158 0018522 167.9597 192.2024 14.17463875296566
Epoch (UTC): 14 January 2022 00:14:54
Eccentricity: 0.0018522
inclination: 98.7565°
perigee height: 820 km
apogee height: 847 km
right ascension of ascending node: 93.5158°
argument of perigee: 167.9597°
revolutions per day: 14.17463875
mean anomaly at epoch: 192.2024°
orbit number at epoch: 29656

The dashed part of the orbit path shows where the satellite is in the earth's shadow,  

DLR